1501984801.03,24518,24.25,74528.0,10.07,-14.97,-15.21,0,*4D
1501984802.29,24519,24.25,74520.3,10.07,-14.61,-14.75,0,*45
1501984803.52,24520,24.25,74516.8,10.05,-14.55,-14.69,0,*47
1501984804.79,24521,24.25,74516.3,10.07,-14.51,-14.61,0,*48
1501984806.04,24522,24.19,74520.8,10.07,-14.65,-14.75,0,*49
1501984807.3,24523,24.25,74520.5,10.07,-14.65,-14.79,0,*44
1501984808.59,24524,24.19,74508.3,10.07,-14.47,-14.51,0,*49
1501984809.86,24525,24.25,74520.3,10.07,-14.33,-14.47,0,*4C
1501984811.09,24526,24.25,74526.5,10.09,-14.33,-14.55,0,*42
1501984812.29,24527,24.19,74526.3,10.09,-14.61,-14.69,0,*4B
1501984813.49,24528,24.25,74530.5,10.09,-14.89,-15.07,0,*4B
1501984814.74,24529,24.25,74526.8,10.09,-14.79,-14.93,0,*49
1501984815.99,24530,24.25,74524.5,10.09,-14.79,-14.93,0,*41
1501984817.22,24531,24.25,74530.8,10.09,-14.93,-15.07,0,*48
1501984818.43,24532,24.25,74528.0,10.09,-15.07,-15.25,0,*47
1501984819.7,24533,24.25,74528.8,10.11,-15.21,-15.35,0,*4A
1501984820.93,24534,24.25,74532.8,10.09,-15.11,-15.21,0,*42
1501984822.2,24535,24.25,74532.8,10.07,-14.97,-15.21,0,*42
1501984823.44,24536,24.25,74536.8,10.07,-15.07,-15.25,0,*4D
1501984824.73,24537,24.25,74534.5,10.07,-15.35,-15.39,0,*40
1501984826.02,24538,24.25,74532.8,10.07,-15.35,-15.39,0,*4F
1501984827.28,24539,24.25,74530.3,10.07,-14.97,-15.11,0,*4D
1501984828.55,24540,24.25,74524.3,10.07,-14.97,-15.21,0,*40
1501984829.81,24541,24.25,74522.0,10.07,-14.93,-15.11,0,*46
1501984831.04,24542,24.25,74526.5,10.09,-14.89,-15.01,0,*41
1501984832.31,24543,24.19,74522.5,10.07,-14.97,-15.21,0,*43
1501984833.57,24544,24.25,74534.3,10.07,-14.93,-15.11,0,*43
1501984834.78,24545,24.25,74534.5,10.05,-15.11,-15.29,0,*40
1501984836.06,24546,24.25,74534.0,10.07,-14.97,-15.21,0,*46
1501984837.31,24547,24.25,74530.5,10.07,-14.97,-15.11,0,*44
1501984838.53,24548,24.25,74532.5,10.09,-14.93,-15.07,0,*46
1501984839.79,24549,24.25,74534.5,10.07,-14.93,-15.07,0,*49
1501984841.05,24550,24.25,74534.0,10.07,-14.83,-15.07,0,*40
1501984842.31,24551,24.25,74530.5,10.07,-14.93,-15.07,0,*40
1501984843.56,24552,24.25,74530.0,10.07,-14.93,-15.11,0,*44
1501984844.85,24553,24.25,74536.3,10.07,-14.83,-14.93,0,*4F
1501984846.14,24554,24.25,74536.8,10.07,-14.83,-14.97,0,*4C
1501984847.38,24555,24.25,74536.5,10.07,-14.37,-14.65,0,*4F
1501984848.61,24556,24.25,74532.0,10.09,-14.43,-14.69,0,*4D
1501984849.85,24557,24.25,74532.0,10.07,-14.37,-14.65,0,*4D
1501984851.09,24558,24.25,74528.0,10.07,-14.33,-14.61,0,*42
1501984852.32,24559,24.25,74528.5,10.09,-14.47,-14.61,0,*4E
1501984853.56,24560,24.25,74528.0,10.09,-14.47,-14.69,0,*4C
1501984854.83,24561,24.25,74528.0,10.11,-14.47,-14.61,0,*4C
1501984856.05,24562,24.25,74530.3,10.09,-14.69,-14.79,0,*43
1501984857.33,24563,24.19,74528.8,10.07,-14.75,-14.83,0,*44
1501984858.55,24564,24.25,74528.0,10.09,-14.69,-14.79,0,*45
1501984859.79,24565,24.25,74528.5,10.09,-14.79,-14.89,0,*4A
1501984860.99,24566,24.25,74528.3,10.09,-14.69,-14.89,0,*48
1501984862.21,24567,24.19,74526.0,10.09,-14.61,-14.75,0,*42
1501984863.44,24568,24.25,74528.8,10.09,-14.75,-14.89,0,*4B
1501984864.69,24569,24.25,74530.3,10.09,-14.79,-15.01,0,*47
1501984865.98,24570,24.19,74528.5,10.07,-15.21,-15.39,0,*46
1501984867.23,24571,24.19,74526.0,10.11,-15.01,-15.29,0,*43
1501984868.48,24572,24.25,74526.3,10.09,-14.93,-15.21,0,*4B
1501984869.71,24573,24.19,74526.0,10.09,-14.93,-15.15,0,*4D
1501984870.99,24574,24.25,74526.3,10.07,-14.97,-15.21,0,*47
1501984872.23,24575,24.25,74528.0,10.09,-15.01,-15.21,0,*46
1501984873.51,24576,24.25,74532.0,10.07,-14.97,-15.21,0,*45
1501984874.73,24577,24.25,74532.3,10.09,-14.93,-15.15,0,*49
1501984876.01,24578,24.19,74528.5,10.07,-14.97,-15.21,0,*4B
1501984877.26,24579,24.25,74532.0,10.09,-14.75,-15.01,0,*4A
1501984878.52,24580,24.25,74532.0,10.07,-14.61,-14.75,0,*45
1501984879.8,24581,24.25,74532.8,10.07,-14.79,-14.93,0,*45
1501984881.05,24582,24.25,74532.0,10.07,-14.93,-15.07,0,*4E
1501984882.34,24583,24.25,74532.3,10.07,-14.79,-14.97,0,*43
1501984883.54,24584,24.25,74530.8,10.09,-14.89,-15.07,0,*4D
1501984884.8,24585,24.25,74538.0,10.07,-14.97,-15.25,0,*4D
1501984886.08,24586,24.19,74534.0,10.07,-14.97,-15.21,0,*4A
1501984887.34,24587,24.25,74538.8,10.07,-14.97,-15.25,0,*4F
1501984888.59,24588,24.25,74536.8,10.07,-14.93,-15.11,0,*43
1501984889.83,24589,24.25,74538.0,10.05,-14.97,-15.25,0,*43
1501984891.1,24590,24.19,74532.5,10.05,-14.83,-14.97,0,*46
1501984892.38,24591,24.19,74534.3,10.07,-14.75,-14.83,0,*49
1501984893.66,24592,24.19,74532.3,10.07,-14.93,-15.21,0,*4B
1501984894.91,24593,24.25,74534.5,10.07,-15.11,-15.35,0,*44
1501984896.15,24594,24.19,74534.3,10.05,-15.07,-15.39,0,*4A
1501984897.38,24595,24.25,74532.8,10.03,-15.01,-15.29,0,*4A
1501984898.61,24596,24.19,74532.0,10.05,-15.01,-15.15,0,*40
1501984899.81,24597,24.19,74528.8,10.03,-14.89,-15.11,0,*42
1501984901.04,24598,24.19,74530.3,10.05,-14.89,-15.01,0,*4A
1501984902.25,24599,24.25,74532.8,10.05,-14.89,-15.15,0,*4E
1501984903.47,24600,24.25,74528.8,10.03,-14.97,-15.11,0,*40
1501984904.71,24601,24.19,74524.8,10.05,-14.79,-14.89,0,*47
1501984905.94,24602,24.19,74520.5,10.03,-14.65,-14.79,0,*40
1501984907.18,24603,24.25,74524.5,10.05,-14.15,-14.43,0,*49
1501984908.39,24604,24.25,74530.8,10.05,-14.15,-14.29,0,*42
1501984909.63,24605,24.19,74524.3,10.03,-14.01,-14.37,0,*4F
1501984910.83,24606,24.25,74522.5,10.03,-14.11,-14.29,0,*42
1501984912.08,24607,24.25,74516.3,10.05,-14.15,-14.51,0,*4E
1501984913.32,24608,24.25,74520.5,10.05,-14.23,-14.51,0,*44
1501984914.56,24609,24.25,74526.8,10.05,-14.23,-14.43,0,*46
1501984915.8,24610,24.19,74524.3,10.07,-14.11,-14.33,0,*4A
1501984917.07,24611,24.19,74524.3,10.07,-14.47,-14.65,0,*4B
1501984918.34,24612,24.19,74528.3,10.07,-14.51,-14.65,0,*4F
1501984919.62,24613,24.25,74532.0,10.07,-14.51,-14.75,0,*4F
1501984920.91,24614,24.25,74530.3,10.07,-14.79,-14.97,0,*4E
1501984922.16,24615,24.25,74532.0,10.07,-14.93,-15.07,0,*43
1501984923.45,24616,24.25,74534.3,10.07,-14.83,-14.97,0,*49
1501984924.74,24617,24.19,74528.8,10.07,-14.83,-14.97,0,*48
1501984926.01,24618,24.19,74528.5,10.07,-14.83,-15.11,0,*48
1501984927.22,24619,24.25,74530.5,10.05,-14.89,-15.11,0,*41
1501984928.45,24620,24.25,74534.8,10.05,-14.97,-15.15,0,*40
1501984929.68,24621,24.19,74528.5,10.05,-14.97,-15.25,0,*42
1501984930.9,24622,24.19,74528.8,10.05,-14.37,-14.65,0,*4E
1501984932.14,24623,24.25,74530.5,10.05,-14.29,-14.55,0,*43
1501984933.35,24624,24.19,74532.5,10.05,-14.37,-14.65,0,*48
1501984934.57,24625,24.25,74534.3,10.05,-14.37,-14.65,0,*49
1501984935.81,24626,24.19,74532.3,10.05,-13.97,-14.23,0,*45
1501984937.05,24627,24.25,74528.5,10.05,-13.97,-14.11,0,*45
1501984938.33,24628,24.19,74522.0,10.07,-13.61,-13.79,0,*48
1501984939.53,24629,24.25,74524.0,10.09,-13.43,-13.73,0,*4D
1501984940.79,24630,24.25,74522.5,10.07,-13.51,-13.87,0,*43
1501984941.98,24631,24.19,74526.0,10.09,-13.47,-13.73,0,*40
1501984943.24,24632,24.25,74522.5,10.09,-13.61,-13.83,0,*48
1501984944.49,24633,24.19,74528.0,10.09,-13.61,-13.83,0,*49
1501984945.77,24634,24.19,74530.3,10.11,-13.61,-13.83,0,*47
1501984946.99,24635,24.25,74532.0,10.11,-13.43,-13.69,0,*42
1501984948.21,24636,24.25,74528.0,10.13,-13.43,-13.79,0,*42
1501984949.44,24637,24.19,74526.0,10.13,-13.55,-13.83,0,*41
1501984950.67,24638,24.25,74526.8,10.13,-13.83,-14.11,0,*49
1501984951.9,24639,24.25,74524.0,10.17,-13.73,-13.97,0,*4A
1501984953.17,24640,24.19,74522.0,10.15,-13.83,-14.15,0,*44
1501984954.43,24641,24.19,74520.3,10.15,-13.83,-14.15,0,*45
1501984955.69,24642,24.19,74518.0,10.15,-13.69,-14.01,0,*47
1501984956.94,24643,24.19,74522.0,10.15,-13.83,-14.11,0,*43
1501984958.21,24644,24.19,74526.3,10.15,-13.97,-14.23,0,*40
1501984959.44,24645,24.19,74526.3,10.17,-13.83,-14.23,0,*46
1501984960.71,24646,24.19,74530.8,10.15,-13.97,-14.29,0,*48
1501984961.96,24647,24.19,74524.3,10.15,-13.79,-14.11,0,*42
1501984963.19,24648,24.19,74528.5,10.21,-13.69,-14.01,0,*4A
1501984964.4,24649,24.19,74516.3,10.17,-13.47,-13.79,0,*4A
1501984965.65,24650,24.25,74518.8,10.17,-13.33,-13.79,0,*41
1501984966.89,24651,24.19,74514.0,10.17,-13.33,-13.79,0,*40
1501984968.12,24652,24.25,74512.8,10.17,-13.65,-14.05,0,*4C
1501984969.34,24653,24.19,74512.8,10.21,-13.47,-13.87,0,*45
1501984970.59,24654,24.19,74516.8,10.23,-13.69,-14.05,0,*41
1501984971.84,24655,24.19,74522.3,10.23,-13.79,-14.29,0,*4F
1501984973.06,24656,24.19,74524.3,10.21,-13.93,-14.43,0,*46
1501984974.32,24657,24.19,74524.8,10.21,-14.01,-14.55,0,*4C
1501984975.58,24658,24.19,74526.8,10.21,-14.05,-14.55,0,*47
1501984976.85,24659,24.19,74526.0,10.21,-14.01,-14.47,0,*41
1501984978.11,24660,24.19,74526.5,10.21,-14.01,-14.55,0,*48
1501984979.32,24661,24.19,74526.8,10.21,-14.19,-14.65,0,*43
1501984980.58,24662,24.25,74524.5,10.23,-14.29,-14.79,0,*4C
1501984981.81,24663,24.19,74522.3,10.17,-14.37,-14.83,0,*40
1501984983.05,24664,24.19,74526.0,10.21,-14.19,-14.79,0,*4B
1501984984.28,24665,24.19,74524.0,10.21,-14.33,-14.93,0,*46
1501984985.5,24666,24.19,74526.3,10.21,-14.29,-14.75,0,*46
1501984986.71,24667,24.19,74528.8,10.17,-14.19,-14.69,0,*4C
1501984987.97,24668,24.19,74530.3,10.15,-14.23,-14.75,0,*45
1501984989.18,24669,24.19,74528.5,10.17,-14.11,-14.65,0,*46
1501984990.39,24670,24.19,74532.8,10.17,-14.11,-14.65,0,*4E
1501984991.63,24671,24.19,74534.0,10.17,-13.97,-14.37,0,*41
1501984992.86,24672,24.25,74534.3,10.17,-13.83,-14.37,0,*47
1501984994.13,24673,24.19,74532.3,10.17,-13.83,-14.47,0,*41
1501984995.35,24674,24.19,74530.3,10.17,-13.79,-14.37,0,*44
1501984996.61,24675,24.19,74530.5,10.15,-13.83,-14.37,0,*42
1501984997.85,24676,24.19,74522.0,10.15,-13.55,-14.23,0,*4F
1501984999.07,24677,24.19,74524.3,10.17,-13.79,-14.37,0,*47
1501985000.31,24678,24.19,74524.5,10.17,-13.61,-14.23,0,*44
1501985001.51,24679,24.19,74530.3,10.17,-13.65,-14.33,0,*40
1501985002.73,24680,24.19,74534.0,10.17,-13.93,-14.51,0,*4B
1501985003.93,24681,24.25,74536.5,10.17,-13.93,-14.61,0,*49
1501985005.22,24682,24.19,74534.3,10.15,-14.01,-14.75,0,*41
1501985006.51,24683,24.19,74534.5,10.15,-13.83,-14.55,0,*4F
1501985007.74,24684,24.19,74532.3,10.17,-13.73,-14.47,0,*46
1501985008.99,24685,24.19,74536.3,10.15,-13.87,-14.69,0,*42
1501985010.2,24686,24.19,74536.5,10.17,-13.93,-14.65,0,*4A
1501985011.43,24687,24.19,74538.3,10.17,-13.73,-14.51,0,*42
1501985012.69,24688,24.25,74532.5,10.17,-13.61,-14.47,0,*49
1501985013.97,24689,24.19,74534.3,10.15,-13.83,-14.75,0,*47
1501985015.21,24690,24.19,74538.0,10.17,-13.83,-14.61,0,*48
1501985016.44,24691,24.25,74536.3,10.17,-13.79,-14.61,0,*4C
1501985017.7,24692,24.19,74532.3,10.13,-13.97,-14.83,0,*47
1501985018.96,24693,24.19,74530.5,10.17,-13.97,-14.83,0,*42
1501985020.22,24694,24.19,74534.3,10.15,-13.65,-14.51,0,*45
1501985021.45,24695,24.19,74530.3,10.17,-13.51,-14.51,0,*41
1501985022.71,24696,24.19,74536.8,10.15,-13.69,-14.55,0,*4F
1501985023.99,24697,24.19,74536.8,10.15,-13.87,-14.75,0,*4C
1501985025.28,24698,24.19,74538.3,10.15,-13.83,-14.83,0,*4E
1501985026.56,24699,24.19,74536.3,10.15,-13.83,-14.75,0,*46
1501985027.85,24700,24.19,74538.0,10.15,-13.79,-14.83,0,*4B
1501985029.11,24701,24.19,74542.3,10.15,-13.83,-14.89,0,*45
1501985030.35,24702,24.19,74538.8,10.13,-13.83,-14.89,0,*40
1501985031.63,24703,24.19,74534.0,10.15,-13.79,-14.83,0,*48
1501985032.87,24704,24.19,74538.3,10.13,-13.87,-14.89,0,*42
1501985034.16,24705,24.19,74538.0,10.11,-13.83,-14.93,0,*4E
1501985035.42,24706,24.19,74536.8,10.13,-13.83,-14.97,0,*4B
1501985036.65,24707,24.19,74532.3,10.13,-13.43,-14.55,0,*48
1501985037.9,24708,24.19,74534.0,10.11,-13.19,-14.43,0,*4D
1501985039.1,24709,24.19,74528.0,10.13,-13.15,-14.37,0,*41
1501985040.32,24710,24.19,74530.8,10.13,-13.15,-14.43,0,*4A
1501985041.58,24711,24.19,74530.3,10.13,-13.29,-14.51,0,*47
1501985042.78,24712,24.19,74528.0,10.13,-13.43,-14.65,0,*4F
1501985044.02,24713,24.19,74530.8,10.11,-13.55,-14.69,0,*47
1501985045.22,24714,24.19,74532.8,10.13,-13.65,-14.89,0,*4F
1501985046.43,24715,24.19,74532.8,10.13,-13.55,-14.89,0,*4D
1501985047.66,24716,24.19,74530.0,10.13,-13.55,-14.83,0,*44
1501985048.95,24717,24.19,74528.8,10.11,-13.61,-14.93,0,*41
1501985050.21,24718,24.19,74532.3,10.11,-13.69,-14.93,0,*46
1501985051.49,24719,24.19,74536.0,10.11,-13.61,-14.93,0,*4F
1501985052.75,24720,24.25,74538.5,10.11,-13.69,-15.01,0,*47
1501985054.04,24721,24.19,74530.8,10.11,-13.61,-14.93,0,*44
1501985055.3,24722,24.19,74534.3,10.11,-13.55,-14.79,0,*44
1501985056.56,24723,24.19,74534.3,10.11,-13.55,-14.79,0,*45
1501985057.82,24724,24.19,74532.5,10.07,-13.73,-14.93,0,*45
1501985059.05,24725,24.19,74528.8,10.09,-13.55,-14.93,0,*4E
1501985060.31,24726,24.19,74532.8,10.07,-13.65,-14.97,0,*44
1501985061.53,24727,24.19,74530.5,10.09,-13.47,-14.93,0,*4F
1501985062.76,24728,24.19,74532.3,10.09,-13.55,-15.01,0,*49
1501985064.05,24729,24.19,74534.3,10.07,-13.61,-14.97,0,*4F
1501985065.31,24730,24.19,74534.0,10.07,-13.61,-15.07,0,*4F
1501985066.55,24731,24.19,74532.8,10.07,-13.65,-15.11,0,*4D
1501985067.78,24732,24.19,74534.3,10.07,-13.65,-15.07,0,*49
1501985069.05,24733,24.19,74532.3,10.07,-13.51,-14.97,0,*47
1501985070.32,24734,24.19,74534.5,10.07,-13.51,-14.97,0,*40
1501985071.58,24735,24.19,74530.8,10.07,-13.51,-14.93,0,*45
1501985072.85,24736,24.19,74534.8,10.07,-13.51,-14.97,0,*42
1501985074.11,24737,24.19,74532.3,10.07,-13.61,-15.07,0,*48
1501985075.36,24738,24.19,74536.3,10.07,-13.51,-15.07,0,*44
1501985076.62,24739,24.19,74536.3,10.07,-13.61,-15.11,0,*41
1501985077.88,24740,24.19,74532.3,10.07,-13.61,-15.11,0,*4F
1501985079.12,24741,24.19,74530.3,10.05,-13.43,-14.97,0,*43
1501985080.38,24742,24.19,74524.8,10.05,-13.29,-14.79,0,*4C
1501985081.64,24743,24.19,74528.0,10.05,-13.37,-14.83,0,*47
1501985082.88,24744,24.19,74530.5,10.05,-13.37,-14.89,0,*4A
1501985084.11,24745,24.19,74528.3,10.03,-13.29,-14.69,0,*4C
1501985085.34,24746,24.19,74530.0,10.05,-13.29,-14.69,0,*49
1501985086.55,24747,24.19,74532.0,10.05,-13.11,-14.69,0,*43
1501985087.76,24748,24.19,74534.3,10.05,-13.15,-14.65,0,*44
1501985088.97,24749,24.19,74532.8,10.05,-13.15,-14.65,0,*45
1501985090.18,24750,24.19,74528.5,10.05,-13.15,-14.65,0,*4D
1501985091.39,24751,24.19,74530.0,10.05,-13.11,-14.65,0,*48
1501985092.6,24752,24.19,74530.8,10.05,-13.23,-14.65,0,*4A
1501985093.82,24753,24.19,74532.5,10.05,-13.23,-14.89,0,*49
1501985095.03,24754,24.19,74532.0,10.03,-13.23,-14.89,0,*48
1501985096.27,24755,24.19,74532.0,10.05,-13.29,-14.89,0,*45
1501985097.5,24756,24.19,74534.3,10.03,-13.51,-15.01,0,*4E
1501985098.71,24757,24.19,74532.0,10.03,-13.51,-15.11,0,*4E
1501985099.97,24758,24.19,74534.0,10.03,-13.37,-14.97,0,*4E
1501985101.23,24759,24.19,74532.5,10.03,-13.37,-14.97,0,*4F
1501985102.46,24760,24.19,74532.8,10.05,-13.37,-14.89,0,*4C
1501985103.7,24761,24.19,74536.0,10.03,-13.29,-14.89,0,*44
1501985104.92,24762,24.19,74534.3,10.03,-13.15,-14.83,0,*42
1501985106.12,24763,24.19,74534.5,10.05,-13.15,-14.69,0,*41
1501985107.33,24764,24.19,74532.0,10.05,-13.11,-14.69,0,*42
1501985108.56,24765,24.19,74534.3,10.03,-13.15,-14.79,0,*40
1501985109.76,24766,24.19,74532.5,10.03,-13.23,-14.89,0,*49
1501985110.97,24767,24.19,74532.0,10.03,-13.23,-14.89,0,*48
1501985112.23,24768,24.19,74538.0,10.05,-13.29,-15.01,0,*4A
1501985113.46,24769,24.19,74536.3,10.03,-13.37,-15.11,0,*43
1501985114.69,24770,24.19,74532.5,10.03,-13.37,-15.11,0,*4B
1501985115.9,24771,24.19,74536.0,10.03,-13.43,-15.15,0,*4D
1501985117.11,24772,24.19,74536.3,10.03,-13.51,-15.15,0,*4D
1501985118.36,24773,24.19,74538.8,10.03,-13.29,-15.01,0,*46
1501985119.62,24774,24.19,74536.0,10.03,-13.29,-14.97,0,*4F
1501985120.82,24775,24.19,74534.3,10.03,-13.23,-14.89,0,*4B
1501985122.05,24776,24.19,74536.0,10.03,-13.15,-14.83,0,*47
1501985123.28,24777,24.19,74532.8,10.03,-13.11,-14.79,0,*47
1501985124.53,24778,24.19,74528.5,10.01,-13.15,-14.83,0,*4B
1501985125.73,24779,24.19,74530.3,10.03,-13.11,-14.69,0,*48
1501985126.95,24780,24.19,74536.8,10.03,-13.15,-14.79,0,*4B
1501985128.18,24781,24.19,74536.8,10.03,-13.15,-14.79,0,*4A
1501985129.38,24782,24.19,74538.5,10.03,-13.15,-14.89,0,*46
1501985130.61,24783,24.19,74536.0,10.03,-13.23,-14.83,0,*48
1501985131.83,24784,24.19,74538.0,10.03,-13.15,-14.79,0,*4F
1501985133.04,24785,24.19,74538.3,10.05,-13.15,-14.69,0,*49
1501985134.23,24786,24.19,74538.0,10.03,-13.15,-14.69,0,*4C
1501985135.43,24787,24.19,74538.0,10.03,-13.11,-14.69,0,*49
1501985136.69,24788,24.19,74538.8,10.03,-13.01,-14.79,0,*46
1501985137.92,24789,24.19,74536.5,10.03,-13.23,-14.79,0,*47
1501985139.17,24790,24.19,74538.3,10.03,-13.37,-15.01,0,*44
1501985140.43,24791,24.19,74536.3,10.05,-13.37,-15.01,0,*43
1501985141.66,24792,24.19,74536.0,10.03,-13.43,-14.97,0,*4B
1501985142.92,24793,24.19,74532.5,10.05,-13.37,-14.97,0,*4F
1501985144.15,24794,24.19,74538.5,10.03,-13.43,-15.01,0,*43
1501985145.4,24795,24.19,74536.8,10.03,-13.37,-15.01,0,*41
1501985146.66,24796,24.19,74540.8,10.03,-13.37,-15.01,0,*42
1501985147.91,24797,24.19,74542.0,10.03,-13.37,-15.01,0,*43
1501985149.11,24798,24.19,74538.8,10.03,-13.43,-15.15,0,*4A
1501985150.33,24799,24.19,74536.0,9.99,-13.51,-15.25,0,*70
1501985151.54,24800,24.19,74532.3,10.03,-13.51,-15.11,0,*43
1501985152.79,24801,24.19,74530.3,10.01,-13.19,-14.75,0,*4F
1501985154.04,24802,24.19,74530.8,10.01,-13.33,-15.07,0,*40
1501985155.29,24803,24.19,74532.8,10.01,-13.33,-14.89,0,*46
1501985156.57,24804,24.19,74526.0,10.01,-13.33,-14.93,0,*4A
1501985157.79,24805,24.19,74530.0,10.01,-13.43,-15.07,0,*40
1501985159.05,24806,24.19,74522.0,10.01,-13.61,-15.15,0,*40
1501985160.32,24807,24.19,74524.3,10.01,-13.61,-15.21,0,*46
1501985161.55,24808,24.19,74522.5,9.99,-13.55,-15.21,0,*77
1501985162.8,24809,24.19,74524.5,10.01,-13.69,-15.35,0,*45
1501985164.06,24810,24.19,74524.5,10.01,-13.61,-15.29,0,*48
1501985165.29,24811,24.19,74526.5,9.99,-13.61,-15.11,0,*7B
1501985166.5,24812,24.19,74524.3,9.99,-13.51,-15.07,0,*7C
1501985167.72,24813,24.19,74530.5,9.99,-13.43,-15.01,0,*78
1501985168.92,24814,24.19,74526.0,9.99,-13.47,-15.11,0,*7A
1501985170.17,24815,24.19,74530.0,9.99,-13.61,-15.21,0,*7C
1501985171.4,24816,24.19,74528.8,10.01,-13.47,-15.07,0,*46
1501985172.62,24817,24.19,74530.0,10.01,-13.55,-15.07,0,*44
1501985173.85,24818,24.19,74528.8,10.01,-13.47,-15.07,0,*48
1501985175.07,24819,24.19,74528.0,10.01,-13.55,-15.07,0,*4A
1501985176.3,24820,24.19,74530.8,9.99,-13.61,-15.11,0,*79
1501985177.5,24821,24.19,74528.8,9.99,-13.47,-15.07,0,*7B
1501985178.75,24822,24.19,74524.3,10.01,-13.43,-15.01,0,*43
1501985179.99,24823,24.19,74528.5,10.01,-13.47,-15.01,0,*46
1501985181.25,24824,24.19,74530.3,9.99,-13.37,-14.97,0,*71
1501985182.47,24825,24.19,74532.0,9.99,-13.47,-14.97,0,*77
1501985183.72,24826,24.19,74530.3,9.99,-13.37,-14.93,0,*77
1501985184.95,24827,24.19,74526.8,9.99,-13.47,-14.93,0,*71
1501985186.2,24828,24.19,74530.8,9.99,-13.33,-14.79,0,*79
1501985187.45,24829,24.19,74526.3,10.01,-13.19,-14.75,0,*45
1501985188.67,24830,24.19,74524.3,9.99,-13.47,-14.97,0,*73
1501985189.9,24831,24.19,74530.8,9.99,-13.47,-14.97,0,*72
1501985191.14,24832,24.19,74530.0,10.01,-13.47,-15.01,0,*46
1501985192.39,24833,24.19,74528.0,10.01,-13.43,-15.01,0,*43
1501985193.64,24834,24.19,74534.0,9.99,-13.61,-15.21,0,*7F
1501985194.93,24835,24.19,74530.8,10.01,-13.83,-15.21,0,*4B
1501985196.18,24836,24.19,74534.5,9.99,-13.87,-15.39,0,*7C
1501985197.43,24837,24.19,74538.5,9.99,-13.87,-15.35,0,*71
1501985198.67,24838,24.19,74536.0,9.99,-13.79,-15.25,0,*7E
1501985199.9,24839,24.19,74536.8,9.99,-13.79,-15.25,0,*7F
1501985201.13,24840,24.19,74538.5,9.99,-13.87,-15.25,0,*70
1501985202.36,24841,24.19,74538.5,9.95,-13.93,-15.35,0,*79
1501985203.6,24842,24.19,74534.8,9.95,-14.01,-15.49,0,*7D
1501985204.87,24843,24.19,74534.3,10.01,-14.05,-15.49,0,*4D
1501985206.13,24844,24.19,74536.0,10.01,-14.01,-15.49,0,*4E
1501985207.37,24845,24.19,74532.3,9.99,-14.05,-15.49,0,*72
1501985208.63,24846,24.19,74528.5,9.95,-14.01,-15.35,0,*72
1501985209.88,24847,24.19,74530.8,9.95,-14.01,-15.25,0,*72
1501985211.12,24848,24.19,74534.0,9.95,-14.05,-15.49,0,*73
1501985212.4,24849,24.19,74532.0,9.93,-14.05,-15.43,0,*7E
1501985213.65,24850,24.19,74534.5,9.95,-14.01,-15.49,0,*7E
1501985214.89,24851,24.19,74532.5,9.93,-14.15,-15.53,0,*77
1501985216.1,24852,24.19,74532.8,9.95,-14.19,-15.53,0,*7E
1501985217.34,24853,24.19,74530.5,9.93,-14.15,-15.53,0,*75
1501985218.6,24854,24.19,74534.8,9.93,-14.23,-15.57,0,*73
1501985219.8,24855,24.19,74534.3,9.91,-14.33,-15.63,0,*76
1501985221.0,24856,24.19,74532.8,9.91,-14.33,-15.63,0,*75
1501985222.25,24857,24.19,74532.3,9.89,-14.33,-15.57,0,*7A
1501985223.51,24858,24.19,74530.3,9.89,-14.19,-15.57,0,*7D
1501985224.77,24859,24.19,74534.3,9.89,-14.29,-15.57,0,*7F
1501985225.99,24860,24.19,74536.5,9.89,-14.33,-15.63,0,*79
1501985227.22,24861,24.19,74532.0,9.89,-14.29,-15.63,0,*73
1501985228.45,24862,24.19,74532.5,9.89,-14.33,-15.63,0,*7B
1501985229.67,24863,24.19,74534.5,9.89,-14.29,-15.63,0,*71
1501985230.9,24864,24.19,74534.0,9.89,-14.29,-15.63,0,*76
1501985232.15,24865,24.19,74532.5,9.89,-14.29,-15.57,0,*70
1501985233.37,24866,24.19,74532.8,9.87,-14.37,-15.49,0,*7D
1501985234.6,24867,24.19,74530.3,9.87,-14.23,-15.39,0,*7E
1501985235.84,24868,24.19,74534.3,9.89,-14.11,-15.29,0,*7F
1501985237.1,24869,24.19,74532.0,9.89,-14.01,-15.15,0,*70
1501985238.35,24870,24.19,74530.0,9.87,-13.87,-15.01,0,*7A
1501985239.6,24871,24.19,74530.8,9.87,-13.79,-14.93,0,*70
1501985240.85,24872,24.19,74530.8,9.85,-13.93,-14.97,0,*71
1501985242.06,24873,24.19,74532.5,9.87,-13.73,-14.89,0,*73
1501985243.28,24874,24.19,74528.0,9.89,-13.47,-14.61,0,*7B
1501985244.53,24875,24.19,74528.3,9.89,-13.43,-14.55,0,*79
1501985245.76,24876,24.19,74526.8,9.89,-13.19,-14.19,0,*7D
1501985247.03,24877,24.19,74530.8,9.89,-13.29,-14.43,0,*70
1501985248.3,24878,24.19,74530.3,9.89,-13.29,-14.43,0,*7F
1501985249.5,24879,24.19,74528.5,9.91,-13.55,-14.61,0,*7C
1501985250.78,24880,24.19,74530.8,9.89,-13.61,-14.75,0,*71
1501985252.01,24881,24.19,74526.0,9.91,-13.73,-14.83,0,*73
1501985253.26,24882,24.19,74526.0,9.93,-13.55,-14.79,0,*73
1501985254.51,24883,24.19,74520.8,9.91,-13.87,-14.97,0,*7F
1501985255.77,24884,24.19,74520.0,9.91,-13.97,-14.97,0,*79
1501985257.0,24885,24.19,74524.3,9.91,-13.47,-14.47,0,*78
1501985258.2,24886,24.19,74520.5,9.91,-13.55,-14.61,0,*7C
1501985259.4,24887,24.19,74518.5,9.91,-13.15,-14.19,0,*76
1501985260.64,24888,24.19,74526.3,9.93,-13.43,-14.43,0,*77
1501985261.87,24889,24.19,74518.5,9.95,-13.37,-14.37,0,*70
1501985263.12,24890,24.19,74522.5,9.93,-13.37,-14.23,0,*7B
1501985264.37,24891,24.19,74520.0,9.93,-13.29,-14.29,0,*7F
1501985265.56,24892,24.19,74518.3,9.95,-13.07,-13.93,0,*70
1501985266.76,24893,24.19,74516.8,9.95,-13.19,-14.11,0,*73
1501985267.99,24894,24.19,74512.3,9.95,-13.33,-14.33,0,*7C
1501985269.19,24895,24.19,74510.5,9.95,-13.19,-14.11,0,*75
1501985270.39,24896,24.19,74508.5,9.99,-13.19,-14.11,0,*7A
1501985271.61,24897,24.19,74514.0,9.99,-13.11,-14.05,0,*76
1501985272.84,24898,24.19,74516.3,9.99,-13.19,-14.01,0,*75
1501985274.09,24899,24.19,74510.0,10.01,-13.15,-14.01,0,*41
1501985275.34,24900,24.19,74508.3,10.01,-13.07,-13.97,0,*4B
1501985276.57,24901,24.19,74516.3,10.03,-12.97,-13.83,0,*45
1501985277.76,24902,24.19,74522.5,10.03,-13.11,-13.93,0,*48
1501985278.98,24903,24.19,74516.8,10.05,-13.51,-14.37,0,*42
1501985280.19,24904,24.19,74520.0,10.03,-13.51,-14.37,0,*43
1501985281.45,24905,24.19,74516.3,10.05,-13.29,-14.01,0,*4E
1501985282.69,24906,24.19,74516.8,10.05,-13.23,-13.97,0,*4F
1501985283.93,24907,24.19,74516.0,10.05,-13.29,-14.15,0,*49
1501985285.19,24908,24.19,74514.0,10.07,-13.61,-14.37,0,*48
1501985286.45,24909,24.19,74516.8,10.07,-13.73,-14.47,0,*4D
1501985287.74,24910,24.19,74514.8,10.07,-13.79,-14.51,0,*48
1501985288.94,24911,24.19,74510.5,10.09,-13.47,-14.23,0,*4F
1501985290.2,24912,24.19,74512.5,10.07,-13.61,-14.37,0,*43
1501985291.45,24913,24.19,74522.0,10.07,-13.93,-14.75,0,*49
1501985292.69,24914,24.19,74522.3,10.07,-13.93,-14.65,0,*4F
1501985293.95,24915,24.19,74518.5,10.07,-13.79,-14.61,0,*4E
1501985295.21,24916,24.13,74514.3,10.07,-13.87,-14.61,0,*4C
1501985296.5,24917,24.19,74516.0,10.07,-13.97,-14.75,0,*49
1501985297.73,24918,24.19,74516.0,10.09,-13.73,-14.47,0,*43
1501985298.99,24919,24.13,74514.0,10.07,-13.87,-14.61,0,*43